Zurück zum Katalog

PSLV DEB

AktivPO
NORAD 35342·DEBRIS·🇮🇳 India

Gestartet Oct 22, 2001 von Satish Dhawan Space Centre

Loading…

Nächste Überflüge (nächste 24 Stunden)

TLE

AlterndSource: Space-Track

Epoche: Sep 11, 2026, 00:13 UTC

1 35342U 01049QA  26254.00942301  .00001193  00000-0  53183-3 0  9996
2 35342  98.3081 177.0688 0339892  18.9496 342.3967 13.97908501672480

Verfolge PSLV DEB in Echtzeit mit AllMySat

Download on the App Store